User: anonymous   Login
Location: Unspecified
(0.0000°N, 0.0000°E)
Time: 05:49:17
(UTC+00:00)
Language:

STARLINK-11410 [DTC] - Orbit

View from above orbital plane
View from above orbital plane
View from above satellite
View from above satellite

Ground track
Ground track

The orbit is defined by the following mean orbital elements,

1 61946U          26145.58505750 +.00000000 +00000-0 +16249-2 0 00006
2 61946  53.1570 352.3067 0000979 113.8995 246.2126 15.69814371    04
Epoch (UTC): 25 May 2026 14:02:28
Eccentricity: 0.0000979
inclination: 53.1570°
perigee height: 359 km
apogee height: 360 km
right ascension of ascending node: 352.3067°
argument of perigee: 113.8995°
revolutions per day: 15.69814371
mean anomaly at epoch: 246.2126°

The dashed part of the orbit path shows where the satellite is in the earth's shadow,  

DLR